Regional Weather Roundup
Issued by NWS

Home | Current Version | Previous Version | Text Only | Print | Product List | Glossary Off
Versions: 1 2 3 4 5 6 7 8 9 10 11 12 13 14 15 16 17 18 19 20 21 22 23 24 25 26 27 28 29 30 31 32 33 34 35 36 37 38 39 40 41 42 43 44 45 46 47 48 49 50

000
ASUS43 KMPX 230010
RWRMN
WEATHER ROUNDUP FOR MINNESOTA
NATIONAL WEATHER SERVICE TWIN CITIES/CHANHASSEN MN
700 PM CDT FRI SEP 22 2017


NOTE: "FAIR" INDICATES FEW OR NO CLOUDS BELOW 12,000 FEET WITH NO
SIGNIFICANT WEATHER AND/OR OBSTRUCTIONS TO VISIBILITY. N/A MEANS
CURRENT SKY AND/OR WEATHER CONDITIONS ARE NOT AVAILABLE.

MNZ060>063-068>070-230100-
   Twin Cities Metro

CITY           SKY/WX    TMP DP  RH WIND       PRES   REMARKS
TWIN CITIES    PTCLDY    89  69  51 S13       29.79S HX  93
6HR MIN TEMP:  89; 6HR MAX TEMP:  94;

ST PAUL        CLEAR     87  68  52 SE18      29.79S HX  90
CRYSTAL        CLEAR     88  66  48 S16       29.77S HX  90
BLAINE         PTCLDY    90  68  48 S14G23    29.78S HX  93
LAKEVILLE      CLEAR     84  66  54 S10G17    29.81S
EDEN PRAIRIE   CLEAR     87  69  54 S12       29.77S HX  91
6HR MIN TEMP:  87; 6HR MAX TEMP:  93;

SOUTH ST PAUL  CLEAR     88  65  45 SE9       29.80S HX  90
LAKE ELMO      FAIR      86  68  54 SE10G16   29.82S
$$
MNZ001>005-007-008-013>017-022>024-027-028-230100-
   Northwest Minnesota

CITY           SKY/WX    TMP DP  RH WIND       PRES   REMARKS
BEMIDJI        CLOUDY    75  72  88 E6        29.72S
HALLOCK          N/A     61  57  88 N14G20    29.75R
ROSEAU         PTCLDY    66  61  82 E10       29.72S
WARROAD        CLOUDY    64  61  88 E12       29.73F
THIEF RVR FALL MOCLDY    73  68  83 N7        29.69R
CROOKSTON      CLEAR     75  70  83 E7        29.65S
FOSSTON        PTCLDY    81  70  69 SE8       29.68F
DETROIT LAKES  CLEAR     79  72  78 SE7       29.70R
MOORHEAD       PTCLDY    84  72  65 SE7       29.63S
PARK RAPIDS    CLEAR     82  74  76 SE13      29.71S
MAHNOMEN       MOCLDY    81  73  75 SE8       29.67F
$$
MNZ006-009>011-018-025>026-230100-
   North Central Minnesota

CITY           SKY/WX    TMP DP  RH WIND       PRES   REMARKS
BAUDETTE       CLOUDY    70  68  93 E8        29.73F
FLAG ISLAND    MOCLDY    66  61  82 NE6       29.74S
INTL FALLS     LGT RAIN  72  68  87 SW3       29.78R FOG
6HR MIN TEMP:  72; 6HR MAX TEMP:  76; 6HR PCP: TRACE;

WASKISH        MOCLDY    72  70  94 E5        29.74S
BIG FORK       PTCLDY    75  72  88 CALM      29.75F
LONGVILLE      CLEAR     77  72  83 SE6       29.73S
GRAND RAPIDS   CLEAR     78  73  84 SE7       29.76F
CRANE LAKE     CLOUDY    73  70  88 S3        29.80R
ORR            CLOUDY    73  66  78 CALM      29.76R
COOK           CLOUDY    75  70  83 SE3       29.78S
WALKER         FAIR      78  72  81 S5        29.72S
$$
MNZ012-019>021-037-230100-
   Northeast Minnesota

CITY           SKY/WX    TMP DP  RH WIND       PRES   REMARKS
DULUTH         PTCLDY    69  67  93 SE10      29.81F
6HR MIN TEMP:  68; 6HR MAX TEMP:  78;

ELY            CLOUDY    75  68  78 S6        29.81S
HIBBING        CLEAR     76  71  85 SE8       29.77S
EVELETH        CLEAR     78  71  78 SE3       29.79F
DULUTH HARBOR  CLEAR     64  63  94 NE6       29.81S
TWO HARBORS    PTCLDY    70  64  83 E7        29.81F
SILVER BAY     CLOUDY    68  63  83 NE8       29.83S
GRAND MARAIS     N/A     65  61  87 NE9       29.88R
$$
MNZ029>031-032-039>041-046>048-054>057-064-230100-
   West Central Minnesota

CITY           SKY/WX    TMP DP  RH WIND       PRES   REMARKS
FERGUS FALLS   PTCLDY    82  72  69 S6        29.65S
WHEATON        CLEAR     86  68  54 S9        29.66R
MORRIS         CLEAR     86  70  58 S16       29.68R HX  90
ELBOW LAKE     FAIR      83  71  66 S12       29.68S HAZE
WADENA         CLEAR     82  72  69 S10       29.70R
GLENWOOD       CLEAR     84  72  65 SE10      29.73R
APPLETON       CLEAR     88  68  51 S9        29.69R HX  91
BENSON         CLEAR     88  70  55 SW8       29.72R HX  92
ORTONVILLE     PTCLDY    86  70  58 N7        29.67R HX  90
MADISON        CLOUDY    88  70  55 S10G17    29.69R HX  92
WILLMAR        FAIR      88  72  58 S7        29.74R HX  94
$$
MNZ033>034-036-042>043-049>051-058-059-230100-
   Central Minnesota

CITY           SKY/WX    TMP DP  RH WIND       PRES   REMARKS
ST CLOUD       CLEAR     84  73  69 SE12      29.74S HX  90
6HR MIN TEMP:  82; 6HR MAX TEMP:  89;

SAUK CENTRE    FAIR      82  73  72 SE8       29.72S
PAYNESVILLE    PTCLDY    87  71  59 SE10G17   29.74S HX  92
AITKIN         CLEAR     81  72  74 S8        29.73F
PINE RIVER     CLEAR     75  70  83 SE6       29.76S
BRAINERD       CLEAR     81  72  74 S10       29.73S
STAPLES        CLEAR     82  72  69 S10       29.71S
LONG PRAIRIE   FAIR      82  72  69 SE8       29.73S
LITTLE FALLS   CLEAR     82  64  54 SE7       29.74S
LITCHFIELD     CLEAR     88  72  58 SE5       29.75R HX  94
BUFFALO        CLEAR     86  68  55 SE9       29.77S
MAPLE LAKE     CLEAR     86  72  63 S7        29.77R HX  92
HUTCHINSON     CLOUDY    87  72  62 S5        29.77R HX  93
$$
MNZ037-044-045-052-053-230100-
   East Central Minnesota

CITY           SKY/WX    TMP DP  RH WIND       PRES   REMARKS
PRINCETON      CLEAR     88  72  58 SE9G17    29.76S HX  94
MORA           CLEAR     82  70  65 SE6       29.78F
CAMBRIDGE      CLEAR     90  72  55 S10G18    29.77S HX  96
RUSH CITY      CLEAR     85  70  60 SE10      29.78S
MOOSE LAKE     CLEAR     81  72  74 S5        29.76S
HINCKLEY       FAIR      82  72  69 SE6       29.78S
CLOQUET        CLEAR     79  72  78 E8        29.79F
MCGREGOR       CLEAR     81  72  74 S7        29.76R
$$
MNZ071>073-080-081-089-090-097-098-230100-
   Southwest Minnesota

CITY           SKY/WX    TMP DP  RH WIND       PRES   REMARKS
MONTEVIDEO     PTCLDY    88  70  55 SW13G18   29.71R HX  92
GRANITE FALLS  MOCLDY    87  72  59 S9        29.73R HX  93
CANBY          CLOUDY    87  69  56 S12       29.71R HX  91
MARSHALL       CLOUDY    86  70  58 S14       29.74R HX  90
REDWOOD FALLS  PTCLDY    88  68  51 S16       29.75R HX  91
OLIVIA         PTCLDY    90  70  51 S13       29.75R HX  95
PIPESTONE      CLOUDY    84  70  61 S9        29.77S
WINDOM         CLEAR     88  66  48 S14G21    29.79R HX  90
WORTHINGTON    CLEAR     85  69  58 S14G21    29.80R
JACKSON        CLEAR     84  66  54 S13       29.83R
TRACY          CLOUDY    87  71  59 S10       29.76R HX  92
SLAYTON        MOCLDY    86  64  47 S12       29.79R
$$
MNZ065>067-074>077-082>085-091>093-230100-
   South Central Minnesota

CITY           SKY/WX    TMP DP  RH WIND       PRES   REMARKS
MANKATO        CLEAR     86  68  54 S12G18    29.80R
NEW ULM        CLEAR     88  64  45 S15G21    29.76R
ST JAMES       CLEAR     88  66  48 S17G28    29.79R HX  90
FAIRMONT       CLEAR     86  66  51 S16       29.81R
FARIBAULT      CLEAR     86  68  54 S13G21    29.83S
OWATONNA       CLEAR     84  70  61 SE14G20   29.84S
WASECA         CLEAR     82  64  54 S13G20    29.84S
ALBERT LEA     CLEAR     88  70  55 S10G18    29.86S HX  92
$$
MNZ078>079-086>088-094>096-230100-
   Southeast Minnesota

CITY           SKY/WX    TMP DP  RH WIND       PRES   REMARKS
ROCHESTER      CLEAR     84  66  54 S13       29.90R
6HR MIN TEMP:  84; 6HR MAX TEMP:  91;

RED WING       CLEAR     86  63  45 SE9       29.83S
STANTON        CLEAR     87  66  50 S14       29.81S
DODGE CENTER   CLEAR     84  64  51 S12G18    29.88S
WINONA         CLEAR     88  64  45 SE5       29.89S
AUSTIN         CLEAR     84  64  51 S10G18    29.89R
PRESTON        CLEAR     83  64  52 S13       29.93R
$$
ABBREVIATIONS USED IN REMARKS
   TC - TEMPERATURES IN CELSIUS
  WCI - WIND CHILL INDEX
   HX - HEAT INDEX
  VSB - VISIBILITY
$$




USA.gov is the U.S. government's official web portal to all federal, state and local government web resources and services.